| time (UTC) | temp F | wind direction | speed MPH | gust MPH | rain 1hr in | rain 24hr in | rain mn in | humidity % | barometer mb |
| 20260905200404 | 79 | 325 | 1.0 | 2.0 | 0.52 | 0.58 | 0.58 | 96 | 1007.1 |
| 20260905195905 | 79 | 324 | 0.0 | 1.0 | 0.53 | 0.57 | 0.57 | 96 | 1007.0 |
| 20260905195404 | 79 | 324 | 0.0 | 1.0 | 0.53 | 0.55 | 0.55 | 96 | 1007.0 |
| 20260905194904 | 79 | 324 | 0.0 | 1.0 | 0.55 | 0.55 | 0.55 | 96 | 1006.9 |
| 20260905193904 | 79 | 8 | 0.0 | 1.0 | 0.53 | 0.53 | 0.53 | 96 | 1006.9 |
| 20260905193404 | 79 | 10 | 0.0 | 1.0 | 0.50 | 0.50 | 0.50 | 95 | 1006.9 |
| 20260905192904 | 79 | 21 | 0.0 | 1.0 | 0.44 | 0.44 | 0.44 | 95 | 1006.9 |
| 20260905192404 | 79 | 8 | 1.0 | 5.0 | 0.38 | 0.38 | 0.38 | 95 | 1006.9 |
| 20260905191904 | 80 | 46 | 2.0 | 5.0 | 0.26 | 0.26 | 0.26 | 95 | 1006.9 |
| 20260905191404 | 80 | 318 | 1.0 | 2.0 | 0.18 | 0.18 | 0.18 | 95 | 1006.9 |
| 20260905190903 | 81 | 39 | 2.0 | 3.0 | 0.13 | 0.13 | 0.13 | 94 | 1006.8 |
| 20260905185904 | 82 | 20 | 1.0 | 2.0 | 0.04 | 0.04 | 0.04 | 93 | 1006.8 |
| 20260905185404 | 82 | 342 | 3.0 | 5.0 | 0.02 | 0.02 | 0.02 | 92 | 1006.8 |
| 20260905184904 | 83 | 32 | 2.0 | 3.0 | 0.00 | 0.00 | 0.00 | 90 | 1006.8 |
| 20260905184404 | 83 | 324 | 2.0 | 3.0 | 0.00 | 0.00 | 0.00 | 88 | 1006.9 |
| 20260905183904 | 84 | 296 | 0.0 | 1.0 | 0.00 | 0.00 | 0.00 | 86 | 1006.9 |
| 20260905183404 | 84 | 291 | 0.0 | 1.0 | 0.00 | 0.00 | 0.00 | 86 | 1006.9 |
| 20260905182904 | 84 | 292 | 0.0 | 1.0 | 0.00 | 0.00 | 0.00 | 86 | 1007.0 |
| 20260905181904 | 83 | 321 | 1.0 | 2.0 | 0.00 | 0.00 | 0.00 | 86 | 1007.0 |
| 20260905181404 | 83 | 279 | 1.0 | 3.0 | 0.00 | 0.00 | 0.00 | 85 | 1007.0 |
| 20260905180404 | 84 | 329 | 0.0 | 1.0 | 0.00 | 0.00 | 0.00 | 86 | 1007.0 |
| 20260905175904 | 84 | 326 | 1.0 | 2.0 | 0.00 | 0.00 | 0.00 | 85 | 1007.1 |
| 20260905174904 | 84 | 297 | 0.0 | 1.0 | 0.00 | 0.00 | 0.00 | 86 | 1007.3 |
| 20260905174404 | 84 | 337 | 0.0 | 1.0 | 0.00 | 0.00 | 0.00 | 87 | 1007.3 |
| 20260905173904 | 83 | 342 | 0.0 | 2.0 | 0.00 | 0.00 | 0.00 | 88 | 1007.3 |
| 20260905173404 | 84 | 38 | 1.0 | 3.0 | 0.00 | 0.00 | 0.00 | 87 | 1007.5 |
| 20260905172904 | 84 | 13 | 1.0 | 3.0 | 0.00 | 0.00 | 0.00 | 86 | 1007.4 |
| 20260905172405 | 84 | 314 | 1.0 | 2.0 | 0.00 | 0.00 | 0.00 | 85 | 1007.3 |
| 20260905171904 | 84 | 55 | 2.0 | 3.0 | 0.00 | 0.00 | 0.00 | 85 | 1007.1 |
| 20260905171404 | 84 | 63 | 2.0 | 3.0 | 0.00 | 0.00 | 0.00 | 84 | 1007.2 |
| 20260905170904 | 84 | 296 | 0.0 | 1.0 | 0.00 | 0.00 | 0.00 | 84 | 1007.0 |
| 20260905165404 | 84 | 318 | 0.0 | 3.0 | 0.00 | 0.00 | 0.00 | 84 | 1007.1 |
| 20260905164904 | 84 | 16 | 0.0 | 2.0 | 0.00 | 0.00 | 0.00 | 84 | 1007.2 |
| 20260905164403 | 84 | 323 | 0.0 | 2.0 | 0.00 | 0.00 | 0.00 | 84 | 1007.2 |
| 20260905163904 | 84 | 302 | 1.0 | 3.0 | 0.00 | 0.00 | 0.00 | 84 | 1007.3 |
| 20260905163404 | 84 | 48 | 2.0 | 3.0 | 0.00 | 0.00 | 0.00 | 83 | 1007.4 |
| 20260905162904 | 84 | 21 | 1.0 | 3.0 | 0.00 | 0.00 | 0.00 | 83 | 1007.4 |
| 20260905162404 | 84 | 324 | 1.0 | 3.0 | 0.00 | 0.00 | 0.00 | 83 | 1007.4 |
| 20260905161904 | 84 | 298 | 1.0 | 3.0 | 0.00 | 0.00 | 0.00 | 82 | 1007.5 |
| 20260905161404 | 84 | 323 | 0.0 | 2.0 | 0.00 | 0.00 | 0.00 | 84 | 1007.5 |
| 20260905160904 | 84 | 19 | 1.0 | 3.0 | 0.00 | 0.00 | 0.00 | 84 | 1007.5 |
| 20260905160404 | 84 | 352 | 1.0 | 3.0 | 0.00 | 0.00 | 0.00 | 83 | 1007.4 |
| 20260905155903 | 84 | 41 | 0.0 | 6.0 | 0.00 | 0.00 | 0.00 | 83 | 1007.5 |
| 20260905155404 | 84 | 66 | 1.0 | 6.0 | 0.00 | 0.00 | 0.00 | 83 | 1007.6 |
| 20260905154904 | 84 | 335 | 1.0 | 3.0 | 0.00 | 0.00 | 0.00 | 83 | 1007.6 |
| 20260905154404 | 84 | 324 | 1.0 | 3.0 | 0.00 | 0.00 | 0.00 | 84 | 1007.8 |
| 20260905153905 | 84 | 329 | 1.0 | 3.0 | 0.00 | 0.00 | 0.00 | 84 | 1007.8 |
| 20260905153404 | 84 | 350 | 1.0 | 3.0 | 0.00 | 0.00 | 0.00 | 84 | 1007.8 |
| 20260905152904 | 84 | 53 | 1.0 | 5.0 | 0.00 | 0.00 | 0.00 | 84 | 1007.9 |
| 20260905151904 | 84 | 5 | 0.0 | 3.0 | 0.00 | 0.00 | 0.00 | 86 | 1007.9 |
| 20260905151404 | 84 | 9 | 1.0 | 3.0 | 0.00 | 0.00 | 0.00 | 86 | 1007.8 |
| 20260905145904 | 85 | 52 | 1.0 | 3.0 | 0.00 | 0.00 | 0.00 | 85 | 1007.7 |
| 20260905144904 | 85 | 19 | 0.0 | 2.0 | 0.00 | 0.00 | 0.00 | 84 | 1007.7 |
| 20260905144404 | 85 | 13 | 1.0 | 2.0 | 0.00 | 0.00 | 0.00 | 84 | 1007.8 |
| 20260905143904 | 85 | 351 | 0.0 | 1.0 | 0.00 | 0.00 | 0.00 | 84 | 1007.8 |
| 20260905143403 | 85 | 335 | 0.0 | 0.0 | 0.00 | 0.00 | 0.00 | 84 | 1007.9 |
| 20260905142404 | 84 | 330 | 0.0 | 1.0 | 0.00 | 0.00 | 0.00 | 84 | 1007.9 |
| 20260905141904 | 84 | 333 | 0.0 | 1.0 | 0.00 | 0.00 | 0.00 | 84 | 1008.0 |
| 20260905140905 | 85 | 339 | 2.0 | 3.0 | 0.00 | 0.00 | 0.00 | 84 | 1008.1 |
| 20260905140404 | 85 | 345 | 0.0 | 2.0 | 0.00 | 0.00 | 0.00 | 83 | 1008.0 |
| 20260905135904 | 85 | 348 | 0.0 | 2.0 | 0.00 | 0.00 | 0.00 | 84 | 1008.1 |
| 20260905135403 | 85 | 331 | 0.0 | 3.0 | 0.00 | 0.00 | 0.00 | 84 | 1008.1 |
| 20260905134904 | 85 | 0 | 2.0 | 3.0 | 0.00 | 0.00 | 0.00 | 83 | 1008.1 |
| 20260905134404 | 85 | 9 | 1.0 | 2.0 | 0.00 | 0.00 | 0.00 | 83 | 1008.1 |
| 20260905133904 | 85 | 351 | 0.0 | 2.0 | 0.00 | 0.00 | 0.00 | 83 | 1008.1 |
| 20260905133404 | 85 | 41 | 0.0 | 2.0 | 0.00 | 0.00 | 0.00 | 83 | 1008.1 |
| 20260905132904 | 85 | 345 | 0.0 | 2.0 | 0.00 | 0.00 | 0.00 | 82 | 1008.0 |
| 20260905132404 | 85 | 327 | 0.0 | 1.0 | 0.00 | 0.00 | 0.00 | 81 | 1007.9 |
| 20260905131904 | 85 | 344 | 0.0 | 1.0 | 0.00 | 0.00 | 0.00 | 81 | 1007.9 |
| 20260905131404 | 85 | 357 | 1.0 | 2.0 | 0.00 | 0.00 | 0.00 | 81 | 1007.8 |
| 20260905130904 | 85 | 304 | 0.0 | 1.0 | 0.00 | 0.00 | 0.00 | 81 | 1007.7 |
| 20260905130404 | 85 | 305 | 0.0 | 1.0 | 0.00 | 0.00 | 0.00 | 81 | 1007.8 |
| 20260905125904 | 85 | 256 | 0.0 | 1.0 | 0.00 | 0.00 | 0.00 | 82 | 1007.7 |
| 20260905125404 | 85 | 246 | 0.0 | 2.0 | 0.00 | 0.00 | 0.00 | 81 | 1007.6 |
| 20260905124404 | 85 | 334 | 0.0 | 2.0 | 0.00 | 0.00 | 0.00 | 82 | 1007.5 |
| 20260905123903 | 85 | 19 | 0.0 | 2.0 | 0.00 | 0.00 | 0.00 | 82 | 1007.5 |
| 20260905123404 | 86 | 40 | 0.0 | 3.0 | 0.00 | 0.00 | 0.00 | 82 | 1007.4 |
| 20260905122904 | 86 | 347 | 0.0 | 1.0 | 0.00 | 0.00 | 0.00 | 82 | 1007.4 |
| 20260905122404 | 86 | 30 | 0.0 | 3.0 | 0.00 | 0.00 | 0.00 | 82 | 1007.3 |
| 20260905121904 | 86 | 331 | 0.0 | 1.0 | 0.00 | 0.00 | 0.00 | 82 | 1007.2 |
| 20260905121404 | 86 | 306 | 0.0 | 1.0 | 0.00 | 0.00 | 0.00 | 82 | 1007.1 |
| 20260905120404 | 86 | 286 | 0.0 | 0.0 | 0.00 | 0.00 | 0.00 | 81 | 1007.1 |
| 20260905115904 | 86 | 286 | 0.0 | 1.0 | 0.00 | 0.00 | 0.00 | 81 | 1006.9 |
| 20260905114903 | 86 | 280 | 0.0 | 1.0 | 0.00 | 0.00 | 0.00 | 81 | 1006.8 |
| 20260905114404 | 86 | 279 | 0.0 | 1.0 | 0.00 | 0.00 | 0.00 | 81 | 1006.7 |
| 20260905113904 | 86 | 271 | 1.0 | 2.0 | 0.00 | 0.00 | 0.00 | 81 | 1006.7 |
| 20260905112904 | 86 | 256 | 1.0 | 2.0 | 0.00 | 0.00 | 0.00 | 80 | 1006.5 |
| 20260905112404 | 86 | 264 | 0.0 | 1.0 | 0.00 | 0.00 | 0.00 | 80 | 1006.5 |
| 20260905111904 | 86 | 264 | 0.0 | 1.0 | 0.00 | 0.00 | 0.00 | 79 | 1006.4 |
| 20260905111404 | 86 | 264 | 0.0 | 2.0 | 0.00 | 0.00 | 0.00 | 78 | 1006.4 |
| 20260905110904 | 86 | 273 | 1.0 | 2.0 | 0.00 | 0.00 | 0.00 | 78 | 1006.3 |
| 20260905110404 | 86 | 261 | 1.0 | 3.0 | 0.00 | 0.00 | 0.00 | 78 | 1006.2 |
| 20260905105904 | 86 | 250 | 1.0 | 2.0 | 0.00 | 0.00 | 0.00 | 79 | 1006.1 |
| 20260905105404 | 86 | 289 | 0.0 | 1.0 | 0.00 | 0.00 | 0.00 | 79 | 1006.0 |
| 20260905104404 | 86 | 291 | 1.0 | 2.0 | 0.00 | 0.00 | 0.00 | 79 | 1005.9 |
| 20260905103904 | 87 | 283 | 0.0 | 2.0 | 0.00 | 0.00 | 0.00 | 77 | 1005.8 |
| 20260905103404 | 87 | 277 | 0.0 | 1.0 | 0.00 | 0.00 | 0.00 | 76 | 1005.8 |
| 20260905102904 | 86 | 276 | 1.0 | 2.0 | 0.00 | 0.00 | 0.00 | 76 | 1005.8 |
| 20260905102404 | 86 | 279 | 1.0 | 3.0 | 0.00 | 0.00 | 0.00 | 76 | 1005.7 |
| 20260905101904 | 86 | 270 | 1.0 | 3.0 | 0.00 | 0.00 | 0.00 | 76 | 1005.7 |
| 20260905101404 | 86 | 277 | 1.0 | 3.0 | 0.00 | 0.00 | 0.00 | 78 | 1005.7 |
| 20260905100903 | 86 | 301 | 0.0 | 2.0 | 0.00 | 0.00 | 0.00 | 79 | 1005.7 |
| 20260905100403 | 86 | 301 | 1.0 | 6.0 | 0.00 | 0.00 | 0.00 | 79 | 1005.7 |
| 20260905095904 | 87 | 316 | 1.0 | 5.0 | 0.00 | 0.00 | 0.00 | 78 | 1005.6 |
| 20260905095404 | 87 | 287 | 1.0 | 5.0 | 0.00 | 0.00 | 0.00 | 78 | 1005.6 |
| 20260905094904 | 87 | 280 | 1.0 | 3.0 | 0.00 | 0.00 | 0.00 | 78 | 1005.6 |
| 20260905094404 | 87 | 297 | 0.0 | 3.0 | 0.00 | 0.00 | 0.00 | 79 | 1005.5 |
| 20260905093904 | 87 | 278 | 1.0 | 7.0 | 0.00 | 0.00 | 0.00 | 79 | 1005.5 |
| 20260905093404 | 87 | 278 | 1.0 | 3.0 | 0.00 | 0.00 | 0.00 | 77 | 1005.4 |
| 20260905092904 | 87 | 275 | 1.0 | 3.0 | 0.00 | 0.00 | 0.00 | 77 | 1005.3 |
| 20260905092404 | 87 | 271 | 1.0 | 9.0 | 0.00 | 0.00 | 0.00 | 77 | 1005.3 |
| 20260905090904 | 88 | 302 | 3.0 | 8.0 | 0.00 | 0.00 | 0.00 | 77 | 1005.1 |
| 20260905090404 | 88 | 297 | 4.0 | 8.0 | 0.00 | 0.00 | 0.00 | 75 | 1005.1 |
| 20260905085904 | 90 | 306 | 1.0 | 6.0 | 0.00 | 0.00 | 0.00 | 74 | 1005.0 |
| 20260905084904 | 90 | 299 | 1.0 | 3.0 | 0.00 | 0.00 | 0.00 | 73 | 1004.9 |
| 20260905084404 | 90 | 301 | 1.0 | 3.0 | 0.00 | 0.00 | 0.00 | 73 | 1005.0 |
| 20260905083904 | 90 | 268 | 2.0 | 3.0 | 0.00 | 0.00 | 0.00 | 74 | 1005.0 |
| 20260905083404 | 91 | 271 | 1.0 | 2.0 | 0.00 | 0.00 | 0.00 | 74 | 1005.0 |
| 20260905082904 | 90 | 279 | 1.0 | 3.0 | 0.00 | 0.00 | 0.00 | 75 | 1005.0 |
| 20260905082403 | 91 | 288 | 1.0 | 3.0 | 0.00 | 0.00 | 0.00 | 74 | 1005.0 |
| 20260905081904 | 90 | 273 | 1.0 | 2.0 | 0.00 | 0.00 | 0.00 | 75 | 1005.0 |
| 20260905081403 | 89 | 264 | 1.0 | 7.0 | 0.00 | 0.00 | 0.00 | 76 | 1004.9 |
| 20260905080904 | 90 | 298 | 2.0 | 3.0 | 0.00 | 0.00 | 0.00 | 74 | 1004.9 |
| 20260905080404 | 90 | 300 | 0.0 | 1.0 | 0.00 | 0.00 | 0.00 | 75 | 1004.8 |
| 20260905075404 | 90 | 351 | 2.0 | 5.0 | 0.00 | 0.00 | 0.00 | 74 | 1004.9 |
| 20260905074904 | 89 | 297 | 2.0 | 5.0 | 0.00 | 0.00 | 0.00 | 75 | 1004.9 |
| 20260905074404 | 89 | 349 | 1.0 | 3.0 | 0.00 | 0.00 | 0.00 | 74 | 1005.0 |
| 20260905073904 | 90 | 337 | 0.0 | 3.0 | 0.00 | 0.00 | 0.00 | 73 | 1005.0 |
| 20260905072404 | 89 | 256 | 1.0 | 3.0 | 0.00 | 0.00 | 0.00 | 75 | 1005.1 |
| 20260905071905 | 89 | 55 | 2.0 | 6.0 | 0.00 | 0.00 | 0.00 | 74 | 1005.2 |
| 20260905071404 | 89 | 30 | 0.0 | 1.0 | 0.00 | 0.00 | 0.00 | 74 | 1005.2 |
| 20260905070404 | 89 | 63 | 3.0 | 3.0 | 0.00 | 0.00 | 0.00 | 73 | 1005.2 |
| 20260905065904 | 90 | 257 | 1.0 | 3.0 | 0.00 | 0.00 | 0.00 | 73 | 1005.3 |
| 20260905064403 | 88 | 297 | 1.0 | 3.0 | 0.00 | 0.00 | 0.00 | 75 | 1005.3 |
| 20260905063904 | 88 | 340 | 1.0 | 5.0 | 0.00 | 0.00 | 0.00 | 75 | 1005.4 |
| 20260905062404 | 88 | 56 | 2.0 | 3.0 | 0.00 | 0.00 | 0.00 | 75 | 1005.5 |
| 20260905061905 | 88 | 358 | 1.0 | 3.0 | 0.00 | 0.00 | 0.00 | 76 | 1005.5 |
| 20260905061404 | 88 | 345 | 2.0 | 6.0 | 0.00 | 0.00 | 0.00 | 76 | 1005.6 |
| 20260905060404 | 88 | 342 | 2.0 | 3.0 | 0.00 | 0.00 | 0.00 | 76 | 1005.5 |
| 20260905055404 | 87 | 286 | 2.0 | 5.0 | 0.00 | 0.00 | 0.00 | 77 | 1005.5 |
| 20260905054904 | 87 | 324 | 2.0 | 3.0 | 0.00 | 0.00 | 0.00 | 76 | 1005.6 |
| 20260905054404 | 87 | 318 | 3.0 | 5.0 | 0.00 | 0.00 | 0.00 | 76 | 1005.6 |
| 20260905053904 | 88 | 327 | 4.0 | 7.0 | 0.00 | 0.00 | 0.00 | 76 | 1005.6 |
| 20260905053404 | 88 | 317 | 4.0 | 7.0 | 0.00 | 0.00 | 0.00 | 75 | 1005.6 |
| 20260905052904 | 88 | 308 | 2.0 | 3.0 | 0.00 | 0.00 | 0.00 | 76 | 1005.7 |
| 20260905051904 | 88 | 338 | 1.0 | 5.0 | 0.00 | 0.00 | 0.00 | 76 | 1005.8 |
| 20260905051404 | 88 | 335 | 0.0 | 6.0 | 0.00 | 0.00 | 0.00 | 76 | 1005.8 |
| 20260905050904 | 89 | 355 | 2.0 | 6.0 | 0.00 | 0.00 | 0.00 | 75 | 1006.0 |
| 20260905045904 | 89 | 324 | 1.0 | 3.0 | 0.00 | 0.00 | 0.00 | 77 | 1006.1 |
| 20260905045404 | 88 | 297 | 1.0 | 3.0 | 0.00 | 0.00 | 0.00 | 77 | 1006.1 |
| 20260905044904 | 88 | 264 | 1.0 | 3.0 | 0.00 | 0.00 | 0.00 | 78 | 1006.3 |
| 20260905043903 | 88 | 278 | 2.0 | 3.0 | 0.00 | 0.00 | 0.00 | 78 | 1006.4 |
| 20260905043404 | 88 | 263 | 1.0 | 2.0 | 0.00 | 0.00 | 0.00 | 78 | 1006.4 |
| 20260905042904 | 88 | 277 | 1.0 | 2.0 | 0.00 | 0.00 | 0.00 | 78 | 1006.4 |
| 20260905042404 | 89 | 292 | 0.0 | 1.0 | 0.00 | 0.00 | 0.00 | 78 | 1006.5 |
| 20260905041904 | 88 | 293 | 0.0 | 1.0 | 0.00 | 0.00 | 0.00 | 78 | 1006.5 |
| 20260905040904 | 88 | 15 | 2.0 | 3.0 | 0.00 | 0.00 | 0.00 | 77 | 1006.5 |
| 20260905040404 | 87 | 327 | 0.0 | 3.0 | 0.00 | 0.00 | 0.00 | 78 | 1006.5 |
| 20260905035404 | 87 | 340 | 1.0 | 2.0 | 0.00 | 0.00 | 0.00 | 78 | 1006.6 |
| 20260905034904 | 87 | 36 | 1.0 | 3.0 | 0.00 | 0.00 | 0.00 | 79 | 1006.7 |
| 20260905034404 | 86 | 37 | 1.0 | 5.0 | 0.00 | 0.00 | 0.00 | 80 | 1006.7 |
| 20260905033904 | 86 | 320 | 1.0 | 5.0 | 0.00 | 0.00 | 0.00 | 82 | 1006.7 |
| 20260905033404 | 86 | 317 | 1.0 | 3.0 | 0.00 | 0.00 | 0.00 | 81 | 1006.6 |
| 20260905031404 | 86 | 299 | 1.0 | 3.0 | 0.00 | 0.00 | 0.00 | 82 | 1006.9 |
| 20260905030904 | 87 | 266 | 1.0 | 3.0 | 0.00 | 0.00 | 0.00 | 82 | 1006.9 |
| 20260905024903 | 87 | 269 | 1.0 | 2.0 | 0.00 | 0.00 | 0.00 | 81 | 1006.8 |
| 20260905024404 | 87 | 265 | 0.0 | 1.0 | 0.00 | 0.00 | 0.00 | 80 | 1006.8 |
| 20260905023904 | 87 | 303 | 1.0 | 2.0 | 0.00 | 0.00 | 0.00 | 80 | 1006.9 |
| 20260905023404 | 87 | 42 | 1.0 | 3.0 | 0.00 | 0.00 | 0.00 | 79 | 1006.9 |
| 20260905022904 | 87 | 357 | 2.0 | 3.0 | 0.00 | 0.00 | 0.00 | 79 | 1006.9 |
| 20260905021404 | 87 | 50 | 1.0 | 2.0 | 0.00 | 0.00 | 0.00 | 79 | 1006.8 |
| 20260905020904 | 86 | 351 | 1.0 | 3.0 | 0.00 | 0.00 | 0.00 | 79 | 1006.7 |
| 20260905020404 | 85 | 344 | 1.0 | 3.0 | 0.00 | 0.00 | 0.00 | 81 | 1006.7 |
| 20260905015404 | 85 | 338 | 1.0 | 3.0 | 0.00 | 0.00 | 0.00 | 83 | 1006.9 |
| 20260905014904 | 85 | 347 | 0.0 | 3.0 | 0.00 | 0.00 | 0.00 | 83 | 1006.8 |
| 20260905014404 | 85 | 331 | 2.0 | 3.0 | 0.00 | 0.00 | 0.00 | 83 | 1006.8 |
| 20260905013904 | 85 | 359 | 0.0 | 2.0 | 0.00 | 0.00 | 0.00 | 84 | 1006.8 |
| 20260905013404 | 85 | 349 | 0.0 | 5.0 | 0.00 | 0.00 | 0.00 | 84 | 1006.8 |
| 20260905012904 | 85 | 329 | 2.0 | 3.0 | 0.00 | 0.00 | 0.00 | 82 | 1006.8 |
| 20260905012404 | 86 | 314 | 1.0 | 3.0 | 0.00 | 0.00 | 0.00 | 81 | 1006.9 |
| 20260905011904 | 85 | 354 | 1.0 | 3.0 | 0.00 | 0.00 | 0.00 | 80 | 1006.9 |
| 20260905010904 | 85 | 248 | 1.0 | 3.0 | 0.00 | 0.00 | 0.00 | 80 | 1006.9 |
| 20260905010404 | 84 | 315 | 1.0 | 3.0 | 0.00 | 0.00 | 0.00 | 82 | 1006.8 |
| 20260905005403 | 84 | 314 | 2.0 | 3.0 | 0.00 | 0.00 | 0.00 | 83 | 1006.7 |
| 20260905004904 | 84 | 301 | 1.0 | 5.0 | 0.00 | 0.00 | 0.00 | 84 | 1006.7 |
| 20260905004404 | 84 | 321 | 0.0 | 3.0 | 0.00 | 0.00 | 0.00 | 85 | 1006.6 |
| 20260905003904 | 84 | 318 | 2.0 | 3.0 | 0.00 | 0.00 | 0.00 | 84 | 1006.5 |
| 20260905003404 | 83 | 320 | 1.0 | 3.0 | 0.00 | 0.00 | 0.00 | 85 | 1006.5 |
| 20260905002904 | 83 | 352 | 1.0 | 2.0 | 0.00 | 0.00 | 0.00 | 85 | 1006.4 |
| 20260905002404 | 83 | 306 | 0.0 | 1.0 | 0.00 | 0.00 | 0.00 | 85 | 1006.4 |
| 20260905001904 | 83 | 329 | 0.0 | 1.0 | 0.00 | 0.00 | 0.00 | 86 | 1006.3 |
| 20260905001404 | 83 | 34 | 2.0 | 3.0 | 0.00 | 0.00 | 0.00 | 86 | 1006.3 |
| 20260905000904 | 83 | 333 | 1.0 | 2.0 | 0.00 | 0.00 | 0.00 | 86 | 1006.3 |
| 20260905000404 | 83 | 1 | 0.0 | 1.0 | 0.00 | 0.00 | 0.00 | 87 | 1006.3 |
| 20260904235904 | 82 | 15 | 0.0 | 2.0 | 0.00 | 0.00 | 0.00 | 87 | 1006.3 |
| 20260904235404 | 82 | 16 | 0.0 | 2.0 | 0.00 | 0.00 | 0.00 | 87 | 1006.2 |
| 20260904234904 | 82 | 353 | 0.0 | 3.0 | 0.00 | 0.00 | 0.00 | 87 | 1006.3 |
| 20260904234404 | 82 | 317 | 0.0 | 2.0 | 0.00 | 0.00 | 0.00 | 87 | 1006.2 |
| 20260904233404 | 82 | 322 | 1.0 | 2.0 | 0.00 | 0.00 | 0.00 | 87 | 1006.1 |
| 20260904232904 | 82 | 325 | 0.0 | 3.0 | 0.00 | 0.00 | 0.00 | 87 | 1006.1 |
| 20260904232404 | 82 | 332 | 0.0 | 3.0 | 0.00 | 0.00 | 0.00 | 87 | 1006.0 |
| 20260904231904 | 82 | 316 | 1.0 | 2.0 | 0.00 | 0.00 | 0.00 | 87 | 1005.9 |
| 20260904230904 | 82 | 62 | 1.0 | 3.0 | 0.00 | 0.00 | 0.00 | 87 | 1005.8 |
| 20260904230404 | 82 | 37 | 1.0 | 2.0 | 0.00 | 0.00 | 0.00 | 87 | 1005.9 |
| 20260904225904 | 82 | 357 | 1.0 | 2.0 | 0.00 | 0.00 | 0.00 | 87 | 1005.9 |
| 20260904225404 | 82 | 7 | 0.0 | 3.0 | 0.00 | 0.00 | 0.00 | 87 | 1005.9 |
| 20260904224904 | 82 | 19 | 1.0 | 2.0 | 0.00 | 0.00 | 0.00 | 87 | 1005.9 |
| 20260904224404 | 82 | 288 | 0.0 | 1.0 | 0.00 | 0.00 | 0.00 | 87 | 1005.9 |
| 20260904223403 | 82 | 269 | 0.0 | 3.0 | 0.00 | 0.00 | 0.00 | 87 | 1005.7 |
| 20260904222904 | 82 | 327 | 0.0 | 1.0 | 0.00 | 0.00 | 0.00 | 87 | 1005.6 |
| 20260904222404 | 82 | 330 | 0.0 | 1.0 | 0.00 | 0.00 | 0.00 | 87 | 1005.6 |
| 20260904221904 | 81 | 331 | 0.0 | 2.0 | 0.00 | 0.00 | 0.00 | 87 | 1005.5 |
| 20260904221404 | 82 | 339 | 1.0 | 2.0 | 0.00 | 0.00 | 0.00 | 87 | 1005.5 |
| 20260904220904 | 82 | 327 | 1.0 | 3.0 | 0.00 | 0.00 | 0.00 | 87 | 1005.4 |
| 20260904220404 | 82 | 307 | 0.0 | 2.0 | 0.00 | 0.00 | 0.00 | 87 | 1005.5 |
| 20260904215904 | 82 | 306 | 0.0 | 2.0 | 0.00 | 0.00 | 0.00 | 87 | 1005.5 |
| 20260904215404 | 82 | 17 | 2.0 | 3.0 | 0.00 | 0.00 | 0.00 | 87 | 1005.5 |
| 20260904213904 | 82 | 332 | 0.0 | 1.0 | 0.00 | 0.00 | 0.00 | 86 | 1005.6 |
| 20260904213404 | 82 | 30 | 0.0 | 2.0 | 0.00 | 0.00 | 0.00 | 86 | 1005.5 |
| 20260904212903 | 82 | 30 | 1.0 | 2.0 | 0.00 | 0.00 | 0.00 | 86 | 1005.5 |
| 20260904212403 | 82 | 14 | 1.0 | 2.0 | 0.00 | 0.00 | 0.00 | 86 | 1005.5 |
| 20260904211903 | 82 | 24 | 1.0 | 2.0 | 0.00 | 0.00 | 0.00 | 86 | 1005.5 |
| 20260904211404 | 82 | 353 | 1.0 | 3.0 | 0.00 | 0.00 | 0.00 | 86 | 1005.5 |
| 20260904210904 | 82 | 5 | 2.0 | 3.0 | 0.00 | 0.00 | 0.00 | 86 | 1005.5 |
| 20260904210404 | 82 | 353 | 1.0 | 3.0 | 0.00 | 0.00 | 0.00 | 85 | 1005.5 |
| 20260904205903 | 82 | 345 | 2.0 | 3.0 | 0.00 | 0.00 | 0.00 | 85 | 1005.5 |
| 20260904205404 | 82 | 306 | 1.0 | 2.0 | 0.00 | 0.00 | 0.00 | 85 | 1005.5 |
| 20260904204903 | 82 | 300 | 1.0 | 2.0 | 0.00 | 0.00 | 0.00 | 85 | 1005.5 |
| 20260904204404 | 82 | 279 | 1.0 | 3.0 | 0.00 | 0.00 | 0.00 | 85 | 1005.5 |
| 20260904202904 | 82 | 315 | 0.0 | 1.0 | 0.00 | 0.00 | 0.00 | 85 | 1005.5 |
| 20260904201904 | 82 | 345 | 1.0 | 3.0 | 0.00 | 0.00 | 0.00 | 84 | 1005.4 |
| 20260904201404 | 82 | 45 | 1.0 | 2.0 | 0.00 | 0.00 | 0.00 | 84 | 1005.4 |
| 20260904200904 | 82 | 352 | 2.0 | 3.0 | 0.00 | 0.00 | 0.00 | 84 | 1005.4 |